[[{"header":{"parameterUnit":"m.s-1","parameterCategory":1,"la1":30.2991,"la2":30.254,"lo1":-89.0895,"lo2":-89.0444,"dy":0.0017,"dx":0.0017,"nx":28,"ny":28,"refTime":"2024-12-23T09:00:00:Z","depth":0,"parameterNumber":2,"parameterNumberName":"U-component_of_WINDS"},"data":[0,0,0,0,0,0,0,0,0,0,0,0,0,0,0,0,0,0,0,0,0,0,0,0,0,0,0,0,0,0,0,0,0,0,0,0,0,0,0,0,0,0,0,0,0,0,0,0,0,0,0,0,0,0,0,0,0,0,-3.3934,-3.3935,0,-3.4014,-3.4014,-3.4015,-3.3887,-3.3883,-3.3879,-3.3874,-3.396,-3.3967,-3.3973,0,0,0,0,0,0,0,0,0,0,0,0,0,-3.3674,-3.368,-3.3934,-3.3935,-3.3936,-3.4013,-3.4014,-3.4016,-3.3888,-3.3883,-3.3877,-3.3872,-3.3958,-3.3966,-3.3974,0,0,0,0,0,0,0,0,0,0,0,0,0,-3.3774,-3.3681,-3.3933,-3.3881,-3.3877,-3.4013,-3.4015,-3.4016,-3.3889,-3.3883,-3.3876,-3.387,-3.3956,-3.3965,-3.3975,-3.4166,0,0,-3.4004,-3.4008,0,0,0,0,0,0,0,0,-3.3769,-3.3784,-3.3888,-3.3885,-3.3881,-3.3934,-3.3954,-3.4067,-3.3891,-3.3885,-3.3874,-3.3867,-3.3957,-3.3966,-3.3996,-3.417,-3.4174,-3.4005,-3.4011,-3.4015,-3.4018,0,0,0,0,0,0,0,-3.3762,-3.378,-3.3965,-3.389,-3.3885,-3.3855,-3.3862,-3.3975,-3.3957,-3.3885,-3.3876,-3.3887,-3.3954,-3.3987,-3.3997,-3.4175,-3.4005,-3.4013,-3.4019,-3.4023,-3.4512,-3.4519,0,0,0,0,0,0,-3.3761,-3.3775,-3.3963,-3.3968,-3.3807,-3.3865,-3.3873,-3.3924,-3.3956,-3.3954,-3.3892,-3.3881,-3.3974,-3.3986,-3.4,-3.4227,-3.4015,-3.4024,-3.4029,-3.4505,-3.4514,-3.4522,0,0,0,0,0,0,-3.3756,-3.3779,-3.3959,-3.3869,-3.3889,-3.3877,-3.3935,-3.3929,-3.3961,-3.3961,-3.3958,-3.3929,-3.3969,-3.3986,-3.4126,-3.4228,-3.4028,-3.4037,-3.4496,-3.4508,-3.4518,-3.4683,0,0,0,0,0,0,-3.3749,-3.3778,-3.385,-3.3871,-3.3895,-3.4084,-3.3941,-3.3935,-3.3978,-3.3963,-3.3995,-3.3994,-3.3965,-3.4112,-3.4135,-3.4238,-3.4044,-3.4487,-3.4501,-3.4514,-3.4669,-3.4698,-3.4724,0,0,0,0,0,-3.374,-3.3894,-3.3854,-3.3877,-3.3984,-3.409,-3.4104,-3.4066,-3.3986,-3.4059,-3.4059,-3.3993,-3.4213,-3.4128,-3.4153,-3.426,-3.4481,-3.4497,-3.4513,-3.4656,-3.4693,-3.4723,0,0,0,0,0,0,-3.3886,-3.3896,-3.3852,-3.4017,-3.4053,-3.4068,-3.4159,-3.4106,-3.4167,-3.4151,-3.4103,-3.4111,-3.4262,-3.4274,-3.4179,-3.4447,-3.4334,-3.4356,-3.4434,-3.4468,-3.4495,-3.449,-3.4052,0,0,0,0,0,-3.3937,-3.4021,-3.4025,-3.4171,-3.4191,-3.4172,-3.4217,-3.4185,-3.4222,-3.4237,-3.4247,-3.4286,-3.4364,-3.4416,-3.4488,-3.4669,-3.4675,-3.4755,-3.4783,-3.4805,-3.4826,-3.4923,-3.4959,-3.4575,-3.4575,-3.4575,0,0,-3.4044,-3.406,-3.4116,-3.42,-3.4225,-3.4314,-3.4186,-3.4286,-3.4352,-3.4252,-3.4385,-3.4394,-3.4434,-3.4596,-3.4668,-3.4611,-3.4933,-3.4826,-3.4844,-3.4852,-3.4944,-3.498,-3.5013,-3.4586,-3.4584,-3.4582,0,0,-3.4285,-3.4305,-3.4429,-3.4456,-3.4494,-3.448,-3.451,-3.4533,-3.4535,-3.4667,-3.4594,-3.4672,-3.4807,-3.4839,-3.4874,-3.5127,-3.5068,-3.5151,-3.5297,-3.5393,-3.5423,-3.5449,-3.5541,-3.5575,-3.5171,-3.5172,-3.5172,0,-3.4414,-3.4545,-3.4499,-3.4604,-3.4644,-3.4556,-3.4682,-3.4711,-3.4772,-3.4802,-3.4737,-3.4904,-3.4925,-3.5094,-3.5155,-3.5185,-3.5219,-3.5148,-3.5422,-3.5448,-3.5472,-3.5559,-3.5594,-3.5181,-3.518,-3.5179,-3.5178,0,-3.4702,-3.4793,-3.4889,-3.4948,-3.4999,-3.5114,-3.5087,-3.5144,-3.5107,-3.5101,-3.5237,-3.5259,-3.5334,-3.5371,-3.5337,-3.5536,-3.5499,-3.5429,-3.5314,-3.552,-3.5601,-3.5634,-3.5196,-3.5192,-3.5189,-3.5187,0,0,-3.5039,-3.5071,-3.5107,-3.5133,-3.5169,-3.5239,-3.5351,-3.5422,-3.5473,-3.5517,-3.5611,-3.5726,-3.5662,-3.5701,-3.5669,-3.5753,-3.5954,-3.5672,-3.5673,-3.5726,-3.6176,-3.6229,-3.6269,-3.5915,-3.5921,-3.5926,-3.6173,0,-3.5279,-3.547,-3.5433,-3.562,-3.5705,-3.5622,-3.5719,-3.5753,-3.575,-3.5822,-3.5819,-3.5902,-3.581,-3.5833,-3.5912,-3.5913,-3.6044,-3.5894,-3.6003,-3.6007,-3.5997,-3.6311,-3.6368,-3.66,-3.6204,-3.6209,-3.6213,0,-3.5586,-3.5641,-3.5837,-3.5859,-3.5893,-3.5981,-3.6044,-3.6114,-3.6151,-3.6142,-3.6186,-3.6139,-3.6251,-3.6133,-3.6288,-3.6187,-3.6229,-3.6236,-3.6244,-3.6254,-3.6124,-3.6331,-3.6673,-3.6708,-3.6262,-3.6258,-3.6255,0,-3.5814,-3.5937,-3.607,-3.6095,-3.6124,-3.6188,-3.6203,-3.6233,-3.6278,-3.6334,-3.6363,-3.6432,-3.647,-3.6525,-3.6498,-3.6414,-3.6658,-3.6538,-3.6656,-3.6657,-3.6713,-3.671,-3.7068,-3.6738,-3.6737,-3.6736,-3.6736,0,-3.6088,-3.6211,-3.6173,-3.6255,-3.6391,-3.6347,-3.6483,-3.6488,-3.6516,-3.6598,-3.6531,-3.661,-3.6569,-3.6646,-3.6625,-3.6758,-3.6775,-3.6773,-3.6766,-3.678,-3.678,-3.6808,-3.6792,-3.6745,-3.6743,-3.6742,-3.674,0,-3.6366,-3.6345,-3.6484,-3.65,-3.6507,-3.6607,-3.6621,-3.6698,-3.6689,-3.6795,-3.6818,-3.6805,-3.6892,-3.687,-3.6965,-3.6951,-3.7118,-3.709,-3.7106,-3.7099,-3.7219,-3.7209,-3.7609,-3.766,-3.7295,-3.7299,-3.7302,0,-3.6543,-3.6636,-3.6661,-3.6711,-3.6731,-3.6812,-3.6858,-3.6819,-3.687,-3.6918,-3.6991,-3.7071,-3.7133,-3.7276,-3.7276,-3.7349,-3.7323,-3.7459,-3.7334,-3.7345,-3.7327,-3.7323,-3.7333,-3.7484,-3.7488,-3.7492,-3.7494,0,-3.686,-3.6845,-3.6913,-3.6978,-3.7035,-3.7085,-3.7128,-3.7173,-3.7137,-3.7198,-3.7285,-3.7334,-3.743,-3.7511,-3.7578,-3.7595,-3.7541,-3.7533,-3.7565,-3.758,-3.7586,-3.7586,-3.7175,-3.7525,-3.7522,-3.7519,-3.7518,-3.7517,-3.7093,-3.7172,-3.7203,-3.7281,-3.7309,-3.7352,-3.7425,-3.7425,-3.7497,-3.7572,-3.7544,-3.7645,-3.7679,-3.7763,-3.7788,-3.7867,-3.7816,-3.7861,-3.7873,-3.7885,-3.7901,-3.7572,-3.7879,-3.7878,-3.7877,-3.7876,-3.7876,0,-3.7408,-3.7423,-3.7495,-3.7558,-3.7621,-3.7561,-3.7606,-3.7663,-3.7752,-3.7788,-3.785,-3.7951,-3.803,-3.8036,-3.811,-3.8173,-3.8149,-3.8194,-3.8189,-3.8195,-3.7941,-3.7907,-3.8211,-3.8211,-3.8211,-3.8211,-3.8211,-3.8211,-3.7579,-3.7709,-3.7698,-3.7842,-3.7856,-3.7954,-3.7985,-3.8024,-3.8053,-3.8168,-3.8232,-3.8235,-3.826,-3.8335,-3.8406,-3.8405,-3.8437,-3.8491,-3.8482,-3.8246,-3.8212,-3.818,-3.8148,-3.8498,-3.8498,-3.8728,-3.873,-3.8732]},{"header":{"parameterUnit":"m.s-1","parameterCategory":1,"la1":30.2991,"la2":30.254,"lo1":-89.0895,"lo2":-89.0444,"dy":0.0017,"dx":0.0017,"nx":28,"ny":28,"refTime":"2024-12-23T09:00:00:Z","depth":0,"parameterNumber":3,"parameterNumberName":"V-component_of_WINDS"},"data":[0,0,0,0,0,0,0,0,0,0,0,0,0,0,0,0,0,0,0,0,0,0,0,0,0,0,0,0,0,0,0,0,0,0,0,0,0,0,0,0,0,0,0,0,0,0,0,0,0,0,0,0,0,0,0,0,0,0,-2.4608,-2.4608,0,-2.4621,-2.4621,-2.4622,-2.4603,-2.4602,-2.4601,-2.4601,-2.4613,-2.4614,-2.4615,0,0,0,0,0,0,0,0,0,0,0,0,0,-2.4565,-2.4566,-2.4608,-2.4608,-2.4609,-2.4621,-2.4621,-2.4622,-2.4603,-2.4602,-2.4601,-2.4601,-2.4613,-2.4614,-2.4615,0,0,0,0,0,0,0,0,0,0,0,0,0,-2.4581,-2.4566,-2.4608,-2.4601,-2.46,-2.4621,-2.4621,-2.4622,-2.4603,-2.4602,-2.4601,-2.46,-2.4613,-2.4614,-2.4615,-2.4644,0,0,-2.462,-2.462,0,0,0,0,0,0,0,0,-2.4581,-2.4583,-2.4602,-2.4601,-2.4601,-2.4609,-2.4611,-2.4629,-2.4603,-2.4602,-2.4601,-2.46,-2.4613,-2.4614,-2.4619,-2.4645,-2.4645,-2.462,-2.4621,-2.4621,-2.4622,0,0,0,0,0,0,0,-2.4579,-2.4582,-2.4613,-2.4602,-2.4601,-2.4596,-2.4597,-2.4614,-2.4613,-2.4602,-2.4601,-2.4603,-2.4612,-2.4617,-2.4619,-2.4645,-2.462,-2.4621,-2.4622,-2.4623,-2.4693,-2.4694,0,0,0,0,0,0,-2.4579,-2.4582,-2.4613,-2.4614,-2.4588,-2.4598,-2.4599,-2.4608,-2.4613,-2.4612,-2.4603,-2.4602,-2.4615,-2.4617,-2.4619,-2.4651,-2.4621,-2.4623,-2.4624,-2.4692,-2.4693,-2.4694,0,0,0,0,0,0,-2.4579,-2.4582,-2.4612,-2.4597,-2.4601,-2.4599,-2.4609,-2.4608,-2.4613,-2.4614,-2.4613,-2.4609,-2.4615,-2.4617,-2.4638,-2.4652,-2.4623,-2.4625,-2.4691,-2.4692,-2.4694,-2.4717,0,0,0,0,0,0,-2.4577,-2.4582,-2.4594,-2.4598,-2.4602,-2.4631,-2.461,-2.4609,-2.4616,-2.4614,-2.4619,-2.4618,-2.4614,-2.4636,-2.4639,-2.4653,-2.4626,-2.4689,-2.4691,-2.4693,-2.4715,-2.4719,-2.4723,0,0,0,0,0,-2.4576,-2.46,-2.4594,-2.4598,-2.4616,-2.4632,-2.4634,-2.4629,-2.4617,-2.4628,-2.4628,-2.4618,-2.465,-2.4638,-2.4641,-2.4656,-2.4688,-2.4691,-2.4693,-2.4713,-2.4718,-2.4723,0,0,0,0,0,0,-2.4598,-2.4601,-2.4594,-2.4621,-2.4626,-2.4629,-2.4643,-2.4635,-2.4644,-2.4642,-2.4634,-2.4636,-2.4657,-2.4659,-2.4645,-2.4683,-2.4667,-2.467,-2.4681,-2.4686,-2.469,-2.4688,-2.4627,0,0,0,0,0,-2.4606,-2.4619,-2.4621,-2.4644,-2.4647,-2.4644,-2.4651,-2.4647,-2.4652,-2.4654,-2.4656,-2.4661,-2.4672,-2.4679,-2.4689,-2.4715,-2.4715,-2.4727,-2.4731,-2.4734,-2.4737,-2.4748,-2.4753,-2.4702,-2.4702,-2.4702,0,0,-2.4623,-2.4626,-2.4635,-2.4648,-2.4652,-2.4665,-2.4647,-2.4662,-2.4671,-2.4657,-2.4675,-2.4676,-2.4682,-2.4704,-2.4715,-2.4707,-2.4751,-2.4737,-2.474,-2.474,-2.4751,-2.4756,-2.476,-2.4703,-2.4703,-2.4703,0,0,-2.4659,-2.4664,-2.4682,-2.4686,-2.4692,-2.469,-2.4694,-2.4698,-2.4698,-2.4716,-2.4705,-2.4716,-2.4735,-2.4739,-2.4743,-2.4779,-2.477,-2.4783,-2.4803,-2.4814,-2.4818,-2.4822,-2.4833,-2.4837,-2.4785,-2.4785,-2.4785,0,-2.4679,-2.4699,-2.4693,-2.4708,-2.4713,-2.4701,-2.4719,-2.4723,-2.4732,-2.4735,-2.4726,-2.4749,-2.4752,-2.4774,-2.4783,-2.4787,-2.4791,-2.4782,-2.4818,-2.4822,-2.4825,-2.4836,-2.484,-2.4787,-2.4787,-2.4787,-2.4786,0,-2.4722,-2.4735,-2.475,-2.4758,-2.4765,-2.4782,-2.4777,-2.4785,-2.4779,-2.4778,-2.4796,-2.4799,-2.4808,-2.4814,-2.4809,-2.4835,-2.4829,-2.482,-2.4803,-2.4831,-2.4841,-2.4845,-2.4789,-2.4788,-2.4788,-2.4788,0,0,-2.4773,-2.4777,-2.4782,-2.4784,-2.4789,-2.4799,-2.4814,-2.4824,-2.483,-2.4836,-2.4847,-2.4863,-2.4854,-2.4859,-2.4854,-2.4864,-2.489,-2.4853,-2.4853,-2.4858,-2.4917,-2.4924,-2.4928,-2.4884,-2.4885,-2.4886,-2.4916,0,-2.4808,-2.4835,-2.4829,-2.4855,-2.4866,-2.4853,-2.4866,-2.487,-2.4869,-2.4878,-2.4876,-2.4887,-2.4874,-2.4877,-2.4886,-2.4885,-2.4902,-2.4883,-2.4894,-2.4894,-2.4892,-2.4934,-2.4941,-2.497,-2.492,-2.4921,-2.4921,0,-2.4853,-2.486,-2.4887,-2.4887,-2.4892,-2.4904,-2.4911,-2.492,-2.4923,-2.4921,-2.4926,-2.4918,-2.4932,-2.4916,-2.4935,-2.4922,-2.4926,-2.4926,-2.4927,-2.4927,-2.4909,-2.4934,-2.4979,-2.4983,-2.4927,-2.4927,-2.4926,0,-2.4886,-2.4902,-2.4919,-2.4922,-2.4924,-2.4932,-2.4934,-2.4936,-2.4941,-2.4947,-2.495,-2.4958,-2.4961,-2.4967,-2.4961,-2.4951,-2.498,-2.4964,-2.4978,-2.4978,-2.4984,-2.4983,-2.5029,-2.4989,-2.4988,-2.4988,-2.4988,0,-2.4925,-2.4942,-2.4934,-2.4945,-2.4962,-2.4954,-2.4972,-2.4971,-2.4973,-2.4983,-2.4973,-2.4982,-2.4974,-2.4982,-2.4978,-2.4993,-2.4995,-2.4993,-2.4991,-2.4993,-2.4993,-2.4995,-2.4992,-2.499,-2.4989,-2.4989,-2.4989,0,-2.4965,-2.496,-2.4978,-2.4978,-2.4978,-2.4991,-2.499,-2.4999,-2.4997,-2.5009,-2.5011,-2.5007,-2.5016,-2.5011,-2.5021,-2.5018,-2.5036,-2.5033,-2.5035,-2.5033,-2.5047,-2.5045,-2.5095,-2.51,-2.5057,-2.5058,-2.5058,0,-2.4989,-2.5001,-2.5002,-2.5007,-2.5009,-2.5018,-2.5023,-2.5016,-2.5021,-2.5025,-2.5033,-2.5041,-2.5047,-2.5062,-2.5059,-2.5066,-2.5061,-2.5078,-2.5062,-2.5063,-2.506,-2.5059,-2.5059,-2.5081,-2.5082,-2.5082,-2.5082,0,-2.5033,-2.503,-2.5037,-2.5043,-2.5049,-2.5054,-2.5058,-2.5063,-2.5055,-2.5062,-2.507,-2.5075,-2.5084,-2.5091,-2.5096,-2.5097,-2.5088,-2.5088,-2.5091,-2.5092,-2.5092,-2.5091,-2.5042,-2.5086,-2.5086,-2.5086,-2.5085,-2.5085,-2.5065,-2.5074,-2.5075,-2.5083,-2.5085,-2.5088,-2.5096,-2.5094,-2.5102,-2.5108,-2.5103,-2.5113,-2.5114,-2.512,-2.5122,-2.5129,-2.5122,-2.5127,-2.5128,-2.5129,-2.513,-2.5092,-2.513,-2.513,-2.513,-2.513,-2.513,0,-2.5107,-2.5106,-2.5114,-2.5119,-2.5125,-2.5116,-2.5119,-2.5124,-2.5133,-2.5135,-2.514,-2.5149,-2.5156,-2.5154,-2.516,-2.5166,-2.5162,-2.5167,-2.5166,-2.5166,-2.5137,-2.5133,-2.517,-2.517,-2.517,-2.517,-2.517,-2.517,-2.5129,-2.5144,-2.514,-2.5155,-2.5155,-2.5164,-2.5166,-2.5169,-2.517,-2.518,-2.5186,-2.5184,-2.5184,-2.5189,-2.5194,-2.5193,-2.5195,-2.5202,-2.52,-2.5172,-2.5168,-2.5164,-2.516,-2.5203,-2.5203,-2.5228,-2.5228,-2.5228]}]]